NSS-9

Last updated on Sun Jun 21 2026 00:03:04 GMT+0000 (Coordinated Universal Time)

1 33749U 09008A 26171.35695513 .00000067 00000+0 00000+0 0 9998 2 33749 1.2711 82.6304 0002072 348.7007 148.7959 1.00271482 63550
UTC large
Height (km)
Speed (km/s)
/
Latitude / Longitude
Inclination (degrees)
Orbital Period (minutes)
Azimuth
Elevation
Range (km)
Doppler Factor

Next 0 passes for location: London (51.5072 / 0.1276)

No passes found over London.
NSS-9